Location: Hall+in+Tirol
(47.2830°N, 11.5170°E)
Time: 12:46:50
(UTC+01:00)

Amateur Radio Satellites - All Passes

Search period start: 27 February 2017 12:16
Search period end: 28 February 2017 12:16
Location: Hall+in+Tirol, 47.2830°N, 11.5170°E

Satellite Date Start Highest point End Downlink Frequencies (MHz)
Time Altitude Azimuth
50 SAT 27 Feb 12:17:59 12:21:08 32° 97° (E) 12:24:17 437.505
ISS 27 Feb 12:29:34 12:32:52 71° 22° (NNE) 12:36:09 437.550
Gurwin Techsat 1B 27 Feb 12:43:42 12:48:50 52° 69° (ENE) 12:53:59 435.225
Tancredo 1 27 Feb 12:50:22 12:53:37 83° 208° (SSW) 12:56:51 437.200
ESTCUBE 1 27 Feb 12:56:58 13:00:41 26° 295° (WNW) 13:04:23 437.505/2401.250
DX 1 27 Feb 12:57:53 13:02:12 58° 101° (ESE) 13:06:30 434.975-435.025
AO-7 27 Feb 13:03:24 13:10:18 30° 51° (NE) 13:17:12 .
UKube-1 27 Feb 13:05:59 13:10:13 51° 100° (E) 13:14:25 .
SPROUT 27 Feb 13:06:02 13:10:18 62° 287° (WNW) 13:14:33 437.525
VELOX 1 27 Feb 13:13:08 13:17:22 46° 290° (WNW) 13:21:35 145.980
YUBILEINY 27 Feb 13:16:49 13:21:42 16° 310° (NW) 13:26:36 435.215
BEESAT 3 27 Feb 13:21:31 13:25:06 30° 42° (NE) 13:28:39 437.485
Oscar 19 27 Feb 13:22:27 13:27:22 45° 261° (W) 13:32:18 437.125/150
AO-85 27 Feb 13:25:57 13:29:06 23° 244° (WSW) 13:32:17 145.980
50 SAT 27 Feb 13:51:35 13:54:03 18° 295° (WNW) 13:56:31 437.505
ITUPSAT 1 27 Feb 13:57:23 14:00:06 15° 89° (E) 14:02:49 437.325
ITAMSAT 1 27 Feb 14:00:19 14:05:20 50° 68° (ENE) 14:10:23 435.822/435.867
BEESAT 27 Feb 14:02:16 14:05:23 17° 90° (E) 14:08:29 436.000
BEESAT 2 27 Feb 14:04:12 14:07:56 33° 43° (NE) 14:11:38 435.950
ISS 27 Feb 14:06:23 14:09:05 23° 220° (SW) 14:11:46 437.550
Gurwin Techsat 1B 27 Feb 14:24:47 14:29:04 24° 267° (W) 14:33:22 435.225
Tancredo 1 27 Feb 14:27:31 14:29:28 15° 224° (SW) 14:31:24 437.200
DX 1 27 Feb 14:35:04 14:37:58 18° 299° (WNW) 14:40:52 434.975-435.025
UKube-1 27 Feb 14:42:50 14:45:54 19° 298° (WNW) 14:48:58 .
AO-7 27 Feb 14:53:57 15:02:20 80° 252° (WSW) 15:10:44 .
BEESAT 3 27 Feb 14:59:03 15:02:46 37° 241° (WSW) 15:06:28 437.485
ITUPSAT 1 27 Feb 15:33:39 15:38:28 73° 287° (WNW) 15:43:14 437.325
BEESAT 27 Feb 15:38:51 15:43:36 64° 288° (WNW) 15:48:19 436.000
NO-84 27 Feb 15:39:59 15:41:15 12° 126° (SE) 15:42:34 435.350 FM
ITAMSAT 1 27 Feb 15:40:49 15:45:03 25° 267° (W) 15:49:20 435.822/435.867
MOZHAYETS 4 27 Feb 15:40:53 15:45:27 58° 100° (E) 15:49:58
BEESAT 2 27 Feb 15:42:03 15:45:41 32° 242° (WSW) 15:49:19 435.950
PCSat 27 Feb 15:54:37 15:59:54 58° 118° (ESE) 16:05:15 145.827
KKS-1 27 Feb 15:56:51 16:00:23 23° 93° (E) 16:03:55 437.445
XW-2B 27 Feb 16:03:47 16:04:01 10° 59° (ENE) 16:04:16 145.730 - 145.750
XW-2C 27 Feb 16:11:01 16:12:40 12° 60° (ENE) 16:14:18 145.795 - 145.815
NUDT-PHONESAT 27 Feb 16:15:40 16:16:48 11° 60° (ENE) 16:17:55 437.300
STARS 27 Feb 16:25:00 16:28:18 20° 92° (E) 16:31:37 437.465
DOVE 4 27 Feb 16:25:34 16:28:40 21° 63° (ENE) 16:31:50 437.250
RS-15 27 Feb 16:28:38 16:39:33 44° 109° (ESE) 16:50:49 29.354- 29.394
LilacSat-2 27 Feb 16:28:51 16:31:40 19° 65° (ENE) 16:34:29 437.200
CUBESAT XI-V 27 Feb 16:46:04 16:50:29 45° 98° (E) 16:54:54 437.345
AO-7 27 Feb 16:51:03 16:56:24 18° 273° (W) 17:01:47 .
CUTE-I 27 Feb 17:03:06 17:08:13 49° 68° (ENE) 17:13:22 437.470
HO-68 27 Feb 17:08:36 17:13:59 24° 52° (NE) 17:19:21 435.675
ITUPSAT 1 27 Feb 17:13:54 17:15:26 11° 306° (NW) 17:16:58 437.325
KAITUO 1B 27 Feb 17:14:19 17:17:58 45° 72° (ENE) 17:21:38 145.475/437.950
NO-84 27 Feb 17:14:59 17:18:16 87° 144° (SE) 17:21:52 435.350 FM
MOZHAYETS 4 27 Feb 17:18:58 17:22:12 19° 299° (WNW) 17:25:24
BEESAT 27 Feb 17:20:08 17:20:26 10° 307° (NW) 17:20:45 436.000
XW-2F 27 Feb 17:22:37 17:26:26 67° 74° (ENE) 17:30:17 145.980 - 146.000
XW-2D 27 Feb 17:28:37 17:32:28 84° 74° (ENE) 17:36:21 145.860 - 145.880
KKS-1 27 Feb 17:32:53 17:37:07 42° 291° (WNW) 17:41:21 437.445
XW-2B 27 Feb 17:33:43 17:37:34 88° 257° (WSW) 17:41:28 145.730 - 145.750
PCSat 27 Feb 17:38:54 17:43:39 30° 318° (NW) 17:48:26 145.827
CUTE 1.7 + AOD 2 27 Feb 17:42:13 17:44:58 17° 62° (ENE) 17:47:43 437.475
XW-2C 27 Feb 17:42:30 17:46:20 69° 259° (W) 17:50:13 145.795 - 145.815
M-CUBED/EXP-1 PRIME 27 Feb 17:42:53 17:46:35 46° 106° (ESE) 17:50:32 437.505
NUDT-PHONESAT 27 Feb 17:46:24 17:50:09 76° 258° (WSW) 17:53:58 437.300
STARS 27 Feb 18:00:38 18:04:53 46° 290° (WNW) 18:09:08 437.465
LilacSat-2 27 Feb 18:02:02 18:05:41 40° 262° (W) 18:09:23 437.200
DOVE 4 27 Feb 18:02:13 18:06:08 41° 262° (W) 18:10:10 437.250
AAUSAT CUBESAT 2 27 Feb 18:18:27 18:20:33 14° 60° (ENE) 18:22:40 437.432
CUBEBUG 2 27 Feb 18:23:00 18:26:28 22° 63° (ENE) 18:30:01 437.445
CUBESAT XI-V 27 Feb 18:24:00 18:27:37 23° 297° (WNW) 18:31:12 437.345
XW-2A 27 Feb 18:24:02 18:27:22 56° 74° (ENE) 18:30:45 145.665 - 145.685
SEEDS 27 Feb 18:33:52 18:37:43 35° 69° (ENE) 18:41:34 437.485
RS-15 27 Feb 18:39:28 18:51:31 70° 314° (NW) 19:03:58 29.354- 29.394
CUTE-I 27 Feb 18:44:04 18:48:30 26° 267° (W) 18:52:59 437.470
KAITUO 1B 27 Feb 18:49:53 18:52:14 16° 269° (W) 18:54:37 145.475/437.950
NO-84 27 Feb 18:53:13 18:56:18 29° 347° (NNW) 18:59:39 435.350 FM
HO-68 27 Feb 18:53:42 19:00:53 87° 253° (WSW) 19:08:07 435.675
UWE-3 27 Feb 18:55:06 18:58:57 28° 65° (ENE) 19:02:54 435.000/436.395/437.385
XW-2F 27 Feb 18:59:54 19:01:02 11° 272° (W) 19:02:09 145.980 - 146.000
ZACube-1 27 Feb 19:11:06 19:14:49 26° 65° (ENE) 19:18:35 437.345
CUTE 1.7 + AOD 2 27 Feb 19:16:10 19:20:23 58° 260° (W) 19:24:37 437.475
M-CUBED/EXP-1 PRIME 27 Feb 19:18:08 19:20:49 19° 301° (WNW) 19:23:38 437.505
YUBILEINY 27 Feb 19:24:22 19:30:31 20° 56° (NE) 19:36:37 435.215
PCSat 27 Feb 19:27:17 19:28:55 11° 343° (NNW) 19:30:32 145.827
DELFI C3 27 Feb 19:32:22 19:32:53 10° 58° (ENE) 19:33:23 145.870
STRAND 1 27 Feb 19:42:58 19:48:09 71° 103° (ESE) 19:53:17 437.568
AAUSAT CUBESAT 2 27 Feb 19:51:21 19:55:29 70° 257° (WSW) 19:59:39 437.432
AO-73 27 Feb 19:57:17 20:01:43 63° 73° (ENE) 20:06:15 145.935
CUBEBUG 2 27 Feb 19:58:25 20:02:45 48° 262° (W) 20:07:16 437.445
XW-2A 27 Feb 19:59:56 20:00:31 10° 271° (W) 20:01:06 145.665 - 145.685
Oscar 11 27 Feb 20:01:15 20:05:32 60° 73° (ENE) 20:09:51 .
SEEDS 27 Feb 20:10:01 20:13:28 24° 266° (W) 20:16:57 437.485
UWE-3 27 Feb 20:31:09 20:35:17 36° 264° (W) 20:39:33 435.000/436.395/437.385
NO-84 27 Feb 20:31:35 20:34:48 26° 9° (N) 20:38:14 435.350 FM
HO-68 27 Feb 20:44:57 20:49:36 18° 272° (W) 20:54:18 435.675
ZACube-1 27 Feb 20:46:40 20:50:54 40° 263° (W) 20:55:13 437.345
RS-15 27 Feb 20:55:36 21:06:43 37° 345° (NNW) 21:17:56 29.354- 29.394
DELFI C3 27 Feb 21:03:03 21:07:01 90° 240° (WSW) 21:11:00 145.870
UNISAT 6 27 Feb 21:03:10 21:04:56 12° 86° (E) 21:06:41 437.425
TIGRISAT 27 Feb 21:03:11 21:04:25 11° 86° (E) 21:05:40 435.000
LO-87 27 Feb 21:05:17 21:06:51 13° 62° (ENE) 21:08:25 145.935 - 145.965
YUBILEINY 27 Feb 21:20:08 21:28:56 80° 80° (E) 21:37:38 435.215
STRAND 1 27 Feb 21:23:13 21:26:47 19° 302° (WNW) 21:30:21 437.568
AO-73 27 Feb 21:35:38 21:38:23 16° 271° (W) 21:41:10 145.935
Oscar 11 27 Feb 21:39:30 21:42:03 15° 270° (W) 21:44:38 .
PRISM 27 Feb 21:43:03 21:47:06 58° 102° (ESE) 21:51:08 437.425
SO-50 27 Feb 21:59:16 22:03:52 63° 124° (ESE) 22:08:27 436.795
NO-84 27 Feb 22:09:09 22:13:02 59° 28° (NNE) 22:17:12 435.350 FM
ESTCUBE 1 27 Feb 22:22:03 22:26:25 50° 71° (ENE) 22:30:47 437.505/2401.250
DX 1 27 Feb 22:24:40 22:25:00 10° 55° (NE) 22:25:20 434.975-435.025
SPROUT 27 Feb 22:27:56 22:30:46 18° 62° (ENE) 22:33:38 437.525
FO-29 27 Feb 22:30:43 22:38:04 47° 96° (E) 22:44:42 435.910
LO-87 27 Feb 22:36:25 22:39:53 55° 260° (W) 22:43:24 145.935 - 145.965
TIGRISAT 27 Feb 22:37:04 22:41:49 87° 99° (E) 22:46:29 435.000
VELOX 1 27 Feb 22:37:28 22:41:08 27° 65° (ENE) 22:44:48 145.980
UNISAT 6 27 Feb 22:37:33 22:42:18 87° 285° (WNW) 22:46:57 437.425
O/OREOS (USA 219) 27 Feb 22:37:36 22:42:04 80° 114° (ESE) 22:46:36 437.305
DUCHIFAT 1 27 Feb 22:54:39 22:56:19 12° 88° (E) 22:57:57 145.980
50 SAT 27 Feb 22:55:14 22:57:59 22° 67° (ENE) 23:00:45 437.505
PCSat 27 Feb 22:56:28 23:00:40 22° 36° (NE) 23:04:51 145.827
EO-79 27 Feb 23:07:12 23:10:19 19° 92° (E) 23:13:26 145.935-145.965
RS-15 27 Feb 23:12:05 23:23:28 39° 19° (NNE) 23:34:38 29.354- 29.394
YUBILEINY 27 Feb 23:18:09 23:24:45 25° 282° (WNW) 23:31:20 435.215
PRISM 27 Feb 23:19:31 23:21:58 16° 299° (WNW) 23:24:25 437.425
NANOSAT C BR1 27 Feb 23:22:16 23:25:50 25° 94° (E) 23:29:23 145.865
POLYITAN 1 27 Feb 23:25:03 23:28:50 29° 95° (E) 23:32:36 437.675
AIST 2D 27 Feb 23:25:40 23:29:08 47° 99° (E) 23:32:34 435.315
QB50P2 27 Feb 23:28:03 23:31:57 33° 96° (E) 23:35:51 145.880/145.840
SO-50 27 Feb 23:40:48 23:44:42 26° 323° (NW) 23:48:33 436.795
BUGSAT 1 27 Feb 23:41:07 23:43:16 14° 89° (E) 23:45:25 437.445
NO-84 27 Feb 23:47:01 23:50:37 30° 225° (SW) 23:54:24 435.350 FM
DX 1 27 Feb 23:56:06 00:00:24 75° 73° (ENE) 00:04:44 434.975-435.025
ESTCUBE 1 28 Feb 00:00:16 00:03:29 19° 268° (W) 00:06:44 437.505/2401.250
SPROUT 28 Feb 00:02:07 00:06:17 55° 259° (W) 00:10:32 437.525
UKube-1 28 Feb 00:03:07 00:07:22 64° 72° (ENE) 00:11:39 .
VELOX 1 28 Feb 00:13:26 00:17:28 35° 263° (W) 00:21:31 145.980
TIGRISAT 28 Feb 00:15:24 00:17:49 14° 302° (WNW) 00:20:13 435.000
FO-29 28 Feb 00:15:51 00:22:59 43° 297° (WNW) 00:29:32 435.910
UNISAT 6 28 Feb 00:16:06 00:18:15 13° 303° (WNW) 00:20:24 437.425
O/OREOS (USA 219) 28 Feb 00:19:15 00:22:05 16° 314° (NW) 00:24:57 437.305
50 SAT 28 Feb 00:28:00 00:31:00 26° 264° (W) 00:34:01 437.505
DUCHIFAT 1 28 Feb 00:28:14 00:32:30 75° 286° (WNW) 00:36:45 145.980
PCSat 28 Feb 00:39:20 00:44:49 90° 57° (ENE) 00:50:15 145.827
EO-79 28 Feb 00:42:12 00:46:19 46° 290° (WNW) 00:50:24 145.935-145.965
NANOSAT C BR1 28 Feb 00:57:43 01:01:37 35° 292° (WNW) 01:05:30 145.865
Gurwin Techsat 1B 28 Feb 00:57:52 01:01:02 16° 88° (E) 01:04:11 435.225
AIST 2D 28 Feb 01:00:01 01:02:00 14° 297° (WNW) 01:03:57 435.315
POLYITAN 1 28 Feb 01:00:49 01:04:36 31° 293° (WNW) 01:08:22 437.675
QB50P2 28 Feb 01:04:01 01:07:39 27° 294° (WNW) 01:11:16 145.880/145.840
ITUPSAT 1 28 Feb 01:06:34 01:10:32 26° 63° (ENE) 01:14:30 437.325
BEESAT 28 Feb 01:11:13 01:15:19 29° 64° (ENE) 01:19:25 436.000
MOZHAYETS 4 28 Feb 01:12:03 01:13:39 12° 56° (NE) 01:15:14
BUGSAT 1 28 Feb 01:14:50 01:19:04 66° 287° (WNW) 01:23:17 437.445
RS-15 28 Feb 01:25:48 01:38:16 78° 50° (NE) 01:50:14 29.354- 29.394
SO-50 28 Feb 01:26:17 01:26:46 10° 347° (NNW) 01:27:14 436.795
Oscar 19 28 Feb 01:30:25 01:35:24 50° 100° (E) 01:40:22 437.125/150
DX 1 28 Feb 01:35:21 01:37:07 12° 271° (W) 01:38:54 434.975-435.025
UKube-1 28 Feb 01:41:33 01:43:51 14° 270° (W) 01:46:08 .
FO-29 28 Feb 02:03:37 02:05:58 12° 320° (NW) 02:08:18 435.910
ITAMSAT 1 28 Feb 02:11:36 02:14:06 13° 87° (E) 02:16:34 435.822/435.867
PCSat 28 Feb 02:24:25 02:27:26 15° 256° (WSW) 02:30:28 145.827
Gurwin Techsat 1B 28 Feb 02:36:15 02:41:37 79° 287° (WNW) 02:46:56 435.225
ITUPSAT 1 28 Feb 02:43:33 02:48:08 44° 261° (W) 02:52:46 437.325
MOZHAYETS 4 28 Feb 02:45:23 02:50:02 78° 73° (ENE) 02:54:41
BEESAT 28 Feb 02:48:30 02:52:57 39° 262° (W) 02:57:28 436.000
AO-7 28 Feb 02:52:34 02:59:34 29° 93° (E) 03:06:28 .
KKS-1 28 Feb 02:57:41 03:01:33 31° 66° (ENE) 03:05:28 437.445
Oscar 19 28 Feb 03:10:17 03:14:27 26° 298° (WNW) 03:18:35 437.125/150
STARS 28 Feb 03:24:23 03:28:04 27° 65° (ENE) 03:31:46 437.465
RS-15 28 Feb 03:39:07 03:49:47 37° 254° (WSW) 04:00:06 29.354- 29.394
AO-85 28 Feb 03:42:07 03:46:24 44° 121° (ESE) 03:50:24 145.980
ITAMSAT 1 28 Feb 03:49:01 03:54:18 89° 281° (W) 03:59:31 435.822/435.867
CUBESAT XI-V 28 Feb 03:52:02 03:56:37 63° 73° (ENE) 04:01:13 437.345
Gurwin Techsat 1B 28 Feb 04:18:00 04:20:43 14° 306° (NW) 04:23:27 435.225
MOZHAYETS 4 28 Feb 04:25:35 04:27:45 13° 272° (W) 04:29:56
M-CUBED/EXP-1 PRIME 28 Feb 04:32:29 04:35:44 77° 252° (WSW) 04:39:02 437.505
KKS-1 28 Feb 04:34:09 04:38:05 31° 264° (W) 04:42:02 437.445
AO-7 28 Feb 04:44:44 04:53:02 73° 294° (WNW) 05:01:15 .
SO-50 28 Feb 04:47:43 04:51:29 25° 36° (NE) 04:55:13 436.795
BEESAT 3 28 Feb 04:52:53 04:55:14 15° 112° (ESE) 04:57:35 437.485
STARS 28 Feb 05:00:17 05:04:17 35° 263° (W) 05:08:21 437.465
XW-2C 28 Feb 05:14:48 05:15:16 10° 87° (E) 05:15:45 145.795 - 145.815
CUTE-I 28 Feb 05:18:13 05:21:12 15° 88° (E) 05:24:11 437.470
AO-85 28 Feb 05:23:07 05:26:55 28° 319° (NW) 05:30:32 145.980
STRAND 1 28 Feb 05:24:29 05:28:22 22° 60° (ENE) 05:32:15 437.568
ITAMSAT 1 28 Feb 05:29:59 05:33:01 16° 305° (NW) 05:36:04 435.822/435.867
CUBESAT XI-V 28 Feb 05:31:32 05:34:26 16° 271° (W) 05:37:19 437.345
LilacSat-2 28 Feb 05:32:46 05:35:24 17° 92° (E) 05:38:00 437.200
BEESAT 2 28 Feb 05:36:48 05:39:36 19° 113° (ESE) 05:42:25 435.950
DOVE 4 28 Feb 05:56:33 06:01:01 40° 97° (E) 06:05:44 437.250
KAITUO 1B 28 Feb 06:16:25 06:20:01 41° 98° (E) 06:23:34 145.475/437.950
HO-68 28 Feb 06:19:57 06:23:45 15° 85° (E) 06:27:31 435.675
XW-2F 28 Feb 06:25:49 06:29:37 64° 101° (E) 06:33:22 145.980 - 146.000
SO-50 28 Feb 06:27:50 06:32:19 61° 237° (WSW) 06:36:43 436.795
BEESAT 3 28 Feb 06:28:29 06:32:22 62° 310° (NW) 06:36:20 437.485
XW-2D 28 Feb 06:32:13 06:36:04 81° 103° (ESE) 06:39:51 145.860 - 145.880
XW-2B 28 Feb 06:37:20 06:41:11 89° 95° (E) 06:44:59 145.730 - 145.750
AO-7 28 Feb 06:38:42 06:44:29 22° 316° (NW) 06:50:16 .
XW-2C 28 Feb 06:46:08 06:49:58 71° 285° (WNW) 06:53:45 145.795 - 145.815
NUDT-PHONESAT 28 Feb 06:47:46 06:51:33 83° 284° (WNW) 06:55:17 437.300
ISS 28 Feb 06:48:01 06:50:30 20° 138° (SE) 06:52:59 437.550
CUTE-I 28 Feb 06:56:31 07:01:56 85° 287° (WNW) 07:07:19 437.470
CUTE 1.7 + AOD 2 28 Feb 06:58:33 07:01:37 19° 92° (E) 07:04:39 437.475
STRAND 1 28 Feb 07:02:02 07:07:07 60° 259° (WSW) 07:12:15 437.568
O/OREOS (USA 219) 28 Feb 07:05:22 07:09:34 34° 56° (NE) 07:13:45 437.305
Tancredo 1 28 Feb 07:06:02 07:08:52 28° 142° (SE) 07:11:43 437.200
LilacSat-2 28 Feb 07:06:15 07:09:53 40° 289° (WNW) 07:13:28 437.200
BEESAT 2 28 Feb 07:13:08 07:17:01 52° 311° (NW) 07:20:59 435.950
XW-2A 28 Feb 07:15:40 07:18:57 38° 98° (E) 07:22:11 145.665 - 145.685
AAUSAT CUBESAT 2 28 Feb 07:31:34 07:33:51 14° 89° (E) 07:36:09 437.432
DOVE 4 28 Feb 07:34:33 07:38:35 28° 294° (WNW) 07:42:48 437.250
AO-73 28 Feb 07:45:22 07:45:48 10° 85° (E) 07:46:14 145.935
CUBEBUG 2 28 Feb 07:46:00 07:50:15 31° 95° (E) 07:54:24 437.445
SEEDS 28 Feb 07:49:41 07:53:41 43° 98° (E) 07:57:38 437.485
KAITUO 1B 28 Feb 07:51:11 07:53:46 18° 296° (WNW) 07:56:18 145.475/437.950
XW-2F 28 Feb 08:01:32 08:03:17 13° 299° (WNW) 08:05:00 145.980 - 146.000
TIGRISAT 28 Feb 08:04:08 08:06:47 15° 59° (ENE) 08:09:28 435.000
UNISAT 6 28 Feb 08:04:30 08:07:22 17° 59° (ENE) 08:10:15 437.425
HO-68 28 Feb 08:05:29 08:12:40 76° 105° (ESE) 08:19:49 435.675
BEESAT 3 28 Feb 08:08:45 08:10:47 13° 331° (NNW) 08:12:50 437.485
XW-2D 28 Feb 08:08:48 08:09:39 11° 301° (WNW) 08:10:30 145.860 - 145.880
UWE-3 28 Feb 08:17:10 08:21:34 39° 97° (E) 08:25:52 435.000/436.395/437.385
ISS 28 Feb 08:23:20 08:26:39 81° 334° (NNW) 08:29:58 437.550
ZACube-1 28 Feb 08:31:42 08:35:50 33° 95° (E) 08:39:53 437.345
YUBILEINY 28 Feb 08:32:06 08:37:41 19° 75° (ENE) 08:43:15 435.215
CUTE 1.7 + AOD 2 28 Feb 08:33:38 08:37:40 44° 289° (WNW) 08:41:40 437.475
PRISM 28 Feb 08:35:01 08:39:02 63° 73° (ENE) 08:43:04 437.425
CUTE-I 28 Feb 08:38:09 08:41:12 15° 305° (NW) 08:44:13 437.470
Tancredo 1 28 Feb 08:41:44 08:44:58 62° 340° (NNW) 08:48:13 437.200
O/OREOS (USA 219) 28 Feb 08:44:53 08:48:55 31° 255° (WSW) 08:52:57 437.305
FO-29 28 Feb 08:45:15 08:51:45 34° 59° (ENE) 08:58:32 435.910
XW-2A 28 Feb 08:49:14 08:51:27 16° 296° (WNW) 08:53:39 145.665 - 145.685
BEESAT 2 28 Feb 08:53:56 08:55:42 12° 333° (NNW) 08:57:30 435.950
AAUSAT CUBESAT 2 28 Feb 09:05:39 09:09:42 57° 287° (WNW) 09:13:43 437.432
AO-73 28 Feb 09:18:11 09:22:45 87° 101° (E) 09:27:13 145.935
Oscar 11 28 Feb 09:21:10 09:25:31 82° 101° (E) 09:29:50 .
CUBEBUG 2 28 Feb 09:22:32 09:26:51 35° 293° (WNW) 09:31:07 437.445
SEEDS 28 Feb 09:26:00 09:29:06 20° 296° (WNW) 09:32:11 437.485
TIGRISAT 28 Feb 09:38:18 09:42:51 76° 259° (WSW) 09:47:32 435.000
UNISAT 6 28 Feb 09:38:59 09:43:31 70° 259° (WSW) 09:48:11 437.425
DUCHIFAT 1 28 Feb 09:49:20 09:51:40 15° 60° (ENE) 09:53:59 145.980
UWE-3 28 Feb 09:53:55 09:57:51 27° 295° (WNW) 10:01:43 435.000/436.395/437.385
HO-68 28 Feb 09:54:02 09:59:46 27° 306° (NW) 10:05:30 435.675
ISS 28 Feb 10:00:17 10:03:23 37° 356° (N) 10:06:30 437.550
EO-79 28 Feb 10:02:33 10:05:50 22° 64° (ENE) 10:09:09 145.935-145.965
AIST 2D 28 Feb 10:03:10 10:06:16 28° 69° (ENE) 10:09:22 435.315
ZACube-1 28 Feb 10:08:04 10:12:03 30° 294° (WNW) 10:15:57 437.345
DELFI C3 28 Feb 10:11:41 10:15:39 84° 281° (W) 10:19:33 145.870
PRISM 28 Feb 10:12:51 10:14:45 13° 270° (W) 10:16:39 437.425
NANOSAT C BR1 28 Feb 10:17:11 10:20:48 28° 66° (ENE) 10:24:28 145.865
Tancredo 1 28 Feb 10:18:32 10:21:35 36° 0° (N) 10:24:38 437.200
POLYITAN 1 28 Feb 10:20:24 10:24:12 33° 68° (ENE) 10:28:03 437.675
QB50P2 28 Feb 10:23:23 10:27:17 37° 69° (ENE) 10:31:15 145.880/145.840
YUBILEINY 28 Feb 10:24:15 10:33:04 82° 96° (E) 10:41:54 435.215
FO-29 28 Feb 10:28:56 10:36:13 66° 259° (W) 10:44:04 435.910
AO-85 28 Feb 10:30:46 10:33:20 16° 33° (NNE) 10:35:53 145.980
BUGSAT 1 28 Feb 10:34:00 10:36:21 15° 60° (ENE) 10:38:44 437.445
AO-73 28 Feb 10:56:10 10:58:18 13° 302° (WNW) 11:00:24 145.935
Oscar 11 28 Feb 10:59:04 11:01:03 13° 301° (WNW) 11:03:00 .
Oscar 19 28 Feb 11:13:39 11:16:48 17° 57° (ENE) 11:19:56 437.125/150
DUCHIFAT 1 28 Feb 11:22:37 11:26:48 69° 257° (WSW) 11:31:04 145.980
LO-87 28 Feb 11:33:35 11:37:11 71° 285° (WNW) 11:40:47 145.935 - 145.965
AIST 2D 28 Feb 11:36:43 11:39:30 21° 266° (W) 11:42:19 435.315
ISS 28 Feb 11:37:01 11:40:15 51° 16° (NNE) 11:43:29 437.550
EO-79 28 Feb 11:37:22 11:41:22 41° 262° (W) 11:45:25 145.935-145.965
SPROUT 28 Feb 11:45:13 11:48:25 20° 92° (E) 11:51:37 437.525
ESTCUBE 1 28 Feb 11:47:45 11:52:15 72° 102° (ESE) 11:56:43 437.505/2401.250
50 SAT 28 Feb 11:50:04 11:52:11 15° 92° (E) 11:54:18 437.505
NANOSAT C BR1 28 Feb 11:52:42 11:56:27 31° 264° (W) 12:00:16 145.865
Tancredo 1 28 Feb 11:54:58 11:58:12 64° 21° (NNE) 12:01:24 437.200
POLYITAN 1 28 Feb 11:56:24 12:00:01 27° 265° (W) 12:03:41 437.675
QB50P2 28 Feb 11:59:46 12:03:12 23° 267° (W) 12:06:39 145.880/145.840
VELOX 1 28 Feb 11:59:52 12:03:52 33° 96° (E) 12:07:53 145.980
AO-7 28 Feb 12:07:01 12:11:38 16° 38° (NE) 12:16:16 .
BUGSAT 1 28 Feb 12:07:11 12:11:14 63° 259° (WSW) 12:15:22 437.445
